Waarnemingen

Advertentie
Mijn weer
Geilenkirchen, Duitsland (10500): temperatuur & dauwpunt: 14.08.2018 01:00:00 - 20.08.2018 01:00:00 (CEST)Geilenkirchen, Duitsland (10500): windsnelheid & windstoten: 14.08.2018 01:00:00 - 20.08.2018 01:00:00 (CEST)Geilenkirchen, Duitsland (10500): windrichting: 14.08.2018 01:00:00 - 20.08.2018 01:00:00 (CEST)Geilenkirchen, Duitsland (10500): luchtdruk: 14.08.2018 01:00:00 - 20.08.2018 01:00:00 (CEST)Geilenkirchen, Duitsland (10500): zicht: 14.08.2018 01:00:00 - 20.08.2018 01:00:00 (CEST)
Datum & Tijd tt [°C] td [°C] ff [km/u] ff [kn] fx [km/u] fx [kn] dd ppp [hPa] vv [km]
20.08.2018 01:00:00 21,1 15,6 9 5 - - WZW 1018,9 10
20.08.2018 00:00:00 21,0 15,6 8 4 - - ZW 1018,9 10
19.08.2018 23:00:00 21,1 15,5 8 4 - - WZW 1018,9 10
19.08.2018 22:00:00 22,3 15,3 13 7 - - W 1018,8 10
19.08.2018 21:00:00 23,4 15,1 21 11 - - W 1018,8 10
19.08.2018 20:00:00 24,8 15,2 21 11 - - W 1018,4 10
19.08.2018 19:00:00 - - - - - - - - -
19.08.2018 18:00:00 - - - - - - - - -
19.08.2018 17:00:00 - - - - - - - - -
19.08.2018 16:00:00 - - - - - - - - -
19.08.2018 15:00:00 - - - - - - - - -
19.08.2018 14:00:00 - - - - - - - - -
19.08.2018 13:00:00 - - - - - - - - -
19.08.2018 12:00:00 - - - - - - - - -
19.08.2018 11:00:00 - - - - - - - - -
19.08.2018 10:00:00 - - - - - - - - -
19.08.2018 09:00:00 - - - - - - - - -
19.08.2018 08:00:00 - - - - - - - - -
19.08.2018 07:00:00 - - - - - - - - -
19.08.2018 06:00:00 - - - - - - - - -
19.08.2018 05:00:00 - - - - - - - - -
19.08.2018 04:00:00 - - - - - - - - -
19.08.2018 03:00:00 - - - - - - - - -
19.08.2018 02:00:00 - - - - - - - - -
19.08.2018 01:00:00 - - - - - - - - -
19.08.2018 00:00:00 - - - - - - - - -
18.08.2018 23:00:00 - - - - - - - - -
18.08.2018 22:00:00 - - - - - - - - -
18.08.2018 21:00:00 - - - - - - - - -
18.08.2018 20:00:00 - - - - - - - - -
18.08.2018 19:00:00 - - - - - - - - -
18.08.2018 18:00:00 - - - - - - - - -
18.08.2018 17:00:00 - - - - - - - - -
18.08.2018 16:00:00 - - - - - - - - -
18.08.2018 15:00:00 - - - - - - - - -
18.08.2018 14:00:00 - - - - - - - - -
18.08.2018 13:00:00 - - - - - - - - -
18.08.2018 12:00:00 - - - - - - - - -
18.08.2018 11:00:00 - - - - - - - - -
18.08.2018 10:00:00 - - - - - - - - -
18.08.2018 09:00:00 - - - - - - - - -
18.08.2018 08:00:00 - - - - - - - - -
18.08.2018 07:00:00 - - - - - - - - -
18.08.2018 06:00:00 - - - - - - - - -
18.08.2018 05:00:00 - - - - - - - - -
18.08.2018 04:00:00 - - - - - - - - -
18.08.2018 03:00:00 - - - - - - - - -
18.08.2018 02:00:00 - - - - - - - - -
18.08.2018 01:00:00 - - - - - - - - -
18.08.2018 00:00:00 - - - - - - - - -
17.08.2018 23:00:00 - - - - - - - - -
17.08.2018 22:00:00 - - - - - - - - -
17.08.2018 21:00:00 - - - - - - - - -
17.08.2018 20:00:00 - - - - - - - - -
17.08.2018 19:00:00 - - - - - - - - -
17.08.2018 18:00:00 24,0 9,6 11 6 - - NW 1019,0 10
17.08.2018 17:00:00 23,4 11,2 9 5 - - N 1019,1 10
17.08.2018 16:00:00 22,0 12,7 15 8 - - N 1019,3 10
17.08.2018 15:00:00 21,4 13,0 11 6 - - NNW 1019,5 10
17.08.2018 14:00:00 19,1 15,1 11 6 - - NNW 1019,7 10
17.08.2018 13:00:00 17,7 15,3 11 6 - - NNW 1019,3 10
17.08.2018 12:00:00 17,1 15,8 8 4 - - NW 1019,0 10
17.08.2018 11:00:00 17,2 16,4 9 5 - - NW 1018,6 10
17.08.2018 10:00:00 16,2 15,7 5 3 - - NW 1017,9 7
17.08.2018 09:00:00 16,2 15,7 5 3 - - OZO 1017,5 8
17.08.2018 08:00:00 15,8 15,5 4 2 - - NNW 1017,3 6
17.08.2018 07:00:00 15,9 15,3 8 4 - - NNW 1017,0 5
17.08.2018 06:00:00 16,7 15,6 8 4 - - N 1015,8 8
17.08.2018 05:00:00 16,8 15,4 11 6 - - N 1015,6 8
17.08.2018 04:00:00 17,8 15,3 15 8 - - NNW 1015,9 10
17.08.2018 03:00:00 17,5 15,9 15 8 - - NW 1015,2 10
17.08.2018 02:00:00 17,0 14,0 2 1 - - OZO - 10
17.08.2018 01:00:00 16,6 14,3 2 1 - - WZW 1014,8 10
17.08.2018 00:00:00 18,9 14,9 5 3 - - NO 1014,5 10
16.08.2018 23:00:00 19,7 15,1 5 3 - - N 1014,3 10
16.08.2018 22:00:00 20,9 14,9 0 0 - - N 1014,2 10
16.08.2018 21:00:00 23,4 14,6 4 2 - - NNO 1013,7 10
16.08.2018 20:00:00 26,6 14,0 9 5 - - N 1013,3 10
16.08.2018 19:00:00 27,3 14,2 15 8 - - WNW 1013,4 10
16.08.2018 18:00:00 27,1 14,5 15 8 - - WNW 1013,8 10
16.08.2018 17:00:00 27,5 14,3 13 7 - - WNW 1014,3 10
16.08.2018 16:00:00 26,7 13,9 11 6 - - W 1014,6 10
16.08.2018 15:00:00 25,8 14,5 11 6 - - ZW 1015,1 10
16.08.2018 14:00:00 24,3 13,8 9 5 - - ZW 1015,8 10
16.08.2018 13:00:00 22,9 14,2 11 6 - - ZW 1016,4 10
16.08.2018 12:00:00 22,4 13,9 18 10 - - WZW 1016,8 10
16.08.2018 11:00:00 20,9 14,5 13 7 - - W 1017,2 10
16.08.2018 10:00:00 19,4 13,9 13 7 - - WZW 1017,5 10
16.08.2018 09:00:00 19,0 14,2 8 4 - - ZZW 1017,4 10
16.08.2018 08:00:00 17,3 14,0 8 4 - - Z 1017,8 10
16.08.2018 07:00:00 15,0 13,5 9 5 - - Z 1018,0 10
16.08.2018 06:00:00 14,4 12,9 8 4 - - Z 1017,8 10
16.08.2018 05:00:00 15,7 13,6 8 4 - - Z 1018,2 10
16.08.2018 04:00:00 16,3 13,7 9 5 - - Z 1018,5 10
16.08.2018 03:00:00 17,0 13,9 8 4 - - Z 1018,8 10
16.08.2018 02:00:00 17,0 14,0 8 4 - - ZW 1019,1 10
16.08.2018 01:00:00 17,7 14,2 9 5 - - ZW 1019,2 10
16.08.2018 00:00:00 17,8 14,9 5 3 - - ZZW 1019,2 10
15.08.2018 23:00:00 18,5 14,8 4 2 - - WZW 1019,1 10
15.08.2018 22:00:00 19,7 14,9 4 2 - - Z 1019,3 10
15.08.2018 21:00:00 20,7 15,1 15 8 - - W 1019,0 10
15.08.2018 20:00:00 22,6 15,0 18 10 - - W 1019,0 10
15.08.2018 19:00:00 23,5 14,3 21 11 - - W 1019,0 10
15.08.2018 18:00:00 22,9 14,3 15 8 - - WZW 1019,4 10
15.08.2018 17:00:00 23,0 15,4 18 10 - - W 1019,6 10
15.08.2018 16:00:00 22,1 14,8 18 10 - - WZW 1019,7 10
15.08.2018 15:00:00 22,8 14,6 22 12 - - WZW 1019,8 10
15.08.2018 14:00:00 21,9 16,0 18 10 - - WZW 1020,1 10
15.08.2018 13:00:00 20,4 15,4 18 10 - - WZW 1020,3 10
15.08.2018 12:00:00 19,2 15,4 13 7 - - ZW 1020,4 10
15.08.2018 11:00:00 18,4 15,1 16 9 - - WZW 1020,3 10
15.08.2018 10:00:00 18,2 15,0 18 10 - - WZW 1019,9 10
15.08.2018 09:00:00 17,4 14,5 11 6 - - WZW 1019,4 10
15.08.2018 08:00:00 16,6 13,7 8 4 - - ZW 1019,4 10
15.08.2018 07:00:00 16,0 13,4 8 4 - - ZW 1019,0 10
15.08.2018 06:00:00 15,9 13,4 8 4 - - ZW 1018,7 10
15.08.2018 05:00:00 16,6 13,5 8 4 - - ZZW 1018,8 10
15.08.2018 04:00:00 17,5 13,7 9 5 - - WZW 1018,9 10
15.08.2018 03:00:00 17,7 13,4 9 5 - - ZW 1019,3 10
15.08.2018 02:00:00 17,4 13,3 9 5 - - ZZW 1019,3 10
15.08.2018 01:00:00 17,0 13,3 8 4 - - ZZW 1019,3 10
15.08.2018 00:00:00 17,7 13,1 5 3 - - ZZW 1018,9 10
14.08.2018 23:00:00 17,8 12,8 2 1 - - WZW 1018,7 10
14.08.2018 22:00:00 19,2 12,7 9 5 - - WNW 1018,5 10
14.08.2018 21:00:00 19,9 15,6 11 6 - - WNW 1017,5 10
14.08.2018 20:00:00 21,1 15,5 16 9 - - WNW 1017,1 10
14.08.2018 19:00:00 21,2 15,6 18 10 - - W 1017,0 10
14.08.2018 18:00:00 20,7 15,4 18 10 - - W 1016,8 10
14.08.2018 17:00:00 21,1 16,1 26 14 - - W 1016,6 10
14.08.2018 16:00:00 21,2 16,0 28 15 - - W 1016,1 10
14.08.2018 15:00:00 20,6 15,7 31 17 50 27 W 1015,7 10
14.08.2018 14:00:00 21,8 15,2 16 9 - - WNW 1015,1 10
14.08.2018 13:00:00 22,1 15,4 26 14 - - WNW 1014,8 10
14.08.2018 12:00:00 20,8 15,1 24 13 - - W 1014,6 10
14.08.2018 11:00:00 19,7 16,2 22 12 - - W 1014,4 10
14.08.2018 10:00:00 18,2 16,2 18 10 - - WZW 1014,1 9
14.08.2018 09:00:00 17,4 15,7 16 9 - - WZW 1013,5 7
14.08.2018 08:00:00 16,9 15,3 21 11 - - WZW 1012,8 7
14.08.2018 07:00:00 16,6 14,9 21 11 - - WZW 1012,1 10
14.08.2018 06:00:00 16,7 14,5 21 11 - - WZW 1011,5 10
14.08.2018 05:00:00 16,9 14,4 21 11 - - WZW 1011,3 10
14.08.2018 04:00:00 17,0 15,0 21 11 - - WZW - 10
14.08.2018 03:00:00 17,4 14,7 16 9 - - WZW 1010,9 10
14.08.2018 02:00:00 17,6 15,1 16 9 - - WZW 1010,7 10
14.08.2018 01:00:00 17,5 15,1 16 9 - - WZW 1010,1 10

tt = temperatuur
td = dauwpunt
ff = windsnelheid
fx = windstoten
dd = windrichting
ppp = luchtdruk
vv = zicht

Weerstations in de omgeving